Farmington, MO

4:42 PM CST on November 15, 2019 (GMT -0600)
Farmington Regional

Weather History for KFAM - June, 2019

Change the Weather History Date:

Saturday, June 8, 2019

  Actual Average Record
Temperature  
Mean Temperature 68 °F -  
Max Temperature 72 °F 78 °F 93 °F (2011)
Min Temperature 64 °F 60 °F 48 °F (2017)
Cooling Degree Days 3    
Growing Degree Days 18 (Base 50)    
Moisture  
Dew Point 64 °F    
Average Humidity 88    
Maximum Humidity 94    
Minimum Humidity 78    
Precipitation  
Precipitation 0.00 in - - ()
Sea Level Pressure  
Sea Level Pressure 29.82 in    
Wind  
Wind Speed 6 mph (North)    
Max Wind Speed 9 mph    
Max Gust Speed -    
Visibility 9 miles    
Events Rain    
Averages and records for this station are not official NWS values.
T = Trace of Precipitation, MM = Missing Value Source: NWS Daily Summary

Daily Weather History Graph

Daily Weather History Graph

Search for Another Location

Airport or City:

Astronomy

Jun. 08, 2019 Rise Set
Actual Time 5:39 AM CDT 8:22 PM CDT
Civil Twilight 5:08 AM CDT 8:53 PM CDT
Nautical Twilight 4:29 AM CDT 9:31 PM CDT
Astronomical Twilight 3:46 AM CDT 10:15 PM CDT
Moon 11:05 AM CDT (6/8) 12:25 AM CDT (6/8)
Length of Visible Light 15h 44m
Length of Day
14h 42m
Waxing Crescent, 33% of the Moon is Illuminated
Jun 8
Waxing Crescent
Jun 10
First Quarter
Jun 17
Full
Jun 25
Last Quarter
Jul 2
New

Hourly Weather History & Observations

Time (CDT) Temp. Dew Point Humidity Pressure Visibility Wind Dir Wind Speed Gust Speed Precip Events Conditions
12:56 AM 66.9 °F 64.9 °F 93% 29.81 in 10.0 mi North 4.6 mph - N/A   Clear
1:56 AM 66.9 °F 64.0 °F 90% 29.80 in 10.0 mi North 5.8 mph - N/A   Clear
2:56 AM 66.9 °F 62.1 °F 84% 29.78 in 10.0 mi North 5.8 mph - N/A   Clear
3:56 AM 64.9 °F 61.0 °F 87% 29.79 in 8.0 mi North 4.6 mph - N/A   Clear
4:56 AM 64.9 °F 60.1 °F 84% 29.79 in 10.0 mi North 4.6 mph - N/A   Mostly Cloudy
5:56 AM 64.0 °F 60.1 °F 87% 29.80 in 10.0 mi North 4.6 mph - N/A   Mostly Cloudy
6:40 AM 64.4 °F 60.8 °F 88% 29.83 in 10.0 mi North 6.9 mph - N/A   Overcast
6:56 AM 64.9 °F 61.0 °F 87% 29.81 in 10.0 mi North 3.5 mph - N/A   Overcast
7:56 AM 64.9 °F 61.0 °F 87% 29.81 in 9.0 mi North 6.9 mph - N/A   Overcast
8:19 AM 64.4 °F 62.6 °F 94% 29.84 in 5.0 mi NNE 9.2 mph - 0.00 in Rain Light Rain
8:41 AM 64.4 °F 62.6 °F 94% 29.84 in 9.0 mi Variable 5.8 mph - 0.00 in   Overcast
8:56 AM 64.9 °F 63.0 °F 93% 29.82 in 10.0 mi North 9.2 mph - 0.00 in   Overcast
9:56 AM 66.0 °F 63.0 °F 90% 29.81 in 10.0 mi NNE 8.1 mph - N/A   Overcast
10:56 AM 66.9 °F 63.0 °F 87% 29.82 in 10.0 mi NNE 9.2 mph - N/A   Overcast
11:56 AM 68.0 °F 63.0 °F 84% 29.83 in 10.0 mi NNE 8.1 mph - N/A   Overcast
12:03 PM 68.0 °F 64.4 °F 88% 29.86 in 10.0 mi North 4.6 mph - N/A   Overcast
12:56 PM 71.1 °F 64.0 °F 78% 29.83 in 10.0 mi NNE 8.1 mph - N/A   Overcast
1:56 PM 72.0 °F 64.9 °F 78% 29.83 in 10.0 mi North 8.1 mph - N/A   Overcast
2:56 PM 71.1 °F 66.0 °F 84% 29.82 in 10.0 mi North 8.1 mph - N/A   Overcast
3:33 PM 69.8 °F 66.2 °F 88% 29.84 in 10.0 mi North 8.1 mph - N/A   Overcast
3:56 PM 71.1 °F 66.0 °F 84% 29.81 in 10.0 mi North 9.2 mph - N/A   Overcast
4:43 PM 71.6 °F 66.2 °F 83% 29.84 in 10.0 mi NNW 6.9 mph - N/A   Overcast
4:56 PM 70.0 °F 66.0 °F 87% 29.82 in 10.0 mi North 8.1 mph - N/A   Overcast
5:19 PM 69.8 °F 66.2 °F 88% 29.84 in 10.0 mi NNE 9.2 mph - N/A   Overcast
5:56 PM 70.0 °F 66.9 °F 90% 29.82 in 10.0 mi North 8.1 mph - N/A   Overcast
6:26 PM 69.8 °F 66.2 °F 88% 29.85 in 7.0 mi North 6.9 mph - N/A   Overcast
6:56 PM 70.0 °F 66.9 °F 90% 29.82 in 6.0 mi NNW 6.9 mph - N/A   Overcast
7:56 PM 69.1 °F 66.9 °F 93% 29.83 in 6.0 mi NW 4.6 mph - N/A   Overcast
8:42 PM 69.8 °F 66.2 °F 88% 29.84 in 6.0 mi NW 5.8 mph - N/A   Overcast
8:56 PM 69.1 °F 66.9 °F 93% 29.82 in 8.0 mi NW 6.9 mph - N/A   Mostly Cloudy
9:56 PM 69.1 °F 66.9 °F 93% 29.83 in 9.0 mi NNW 6.9 mph - N/A   Overcast
10:47 PM 69.8 °F 66.2 °F 88% 29.85 in 10.0 mi NNW 8.1 mph - 0.00 in   Overcast
11:47 PM 69.8 °F 66.2 °F 88% 29.85 in 9.0 mi NNW 5.8 mph - N/A   Partly Cloudy
11:56 PM 69.1 °F 66.9 °F 93% 29.83 in 9.0 mi NNW 4.6 mph - N/A   Partly Cloudy